FENGYUN 1C DEB, 30108

Orbit data source: Space-Track

FENGYUN 1C DEB, 30108 is space debris in SSO originally from a launch on Mon, 10 May 1999 UTC launched from the Taiyaun Space Center, China (TSC). Fengyun 1C debris stems from the Chinese weather satellite Fengyun-1C, which was intentionally destroyed by a Chinese anti-satellite missile in 2007. This event dramatically increased the amount of space debris, with thousands of trackable fragments posing hazards to satellites and human spaceflight. The Fengyun 1C debris cloud has become a focal point in discussions about space sustainability and the need for international regulations to prevent the creation of new debris.

Loading next visibility...
Identifier
30108, 1999-025RM
Orbit
SSO
Country
Flag of CNCN / PRC
Related business
Manufacturer
Unknown
Mission
Spacecraft
Bus & Motor
Unknown
Mass
Unknown
Launch date (UTC)
1999-05-10 (27 years ago)
Launch vehicle
Unknown
Launch site
Taiyaun Space Center, China (TSC)
Object type
Payload
Rocket body
Debris
Shape & HBR
Unknown shape, 0.1 m
Radar Cross Section
Medium (>0.1 m² and <1 m²)

Expand to show TLE details & history
Last TLE update: 1 day ago

TLE from 1 day ago
0 FENGYUN 1C DEB
1 30108U 99025RM  26237.42214704  .00000583  00000-0  25565-3 0  9993
2 30108  98.6830 222.3050 0197017   7.5819 145.7547 14.17500377 12198
Epoch: 2026-08-25T10:07Z
TLE epoch observation values (Epoch: 2026-08-25T10:07:53.504Z)
Latitude
25.13561°
Longitude
-79.27003°
Altitude
955.203 km
Speed
7.316 km/s
True Right ascension
03h 05m 34s
True Declination
25° 00' 26"
Sunlit
Object was in daylight at epoch
Visualization orbit readout
Latitude
Unknown
Longitude
Unknown
Altitude
Unknown
Speed
Unknown
Apparent Right ascension
Unknown
Apparent Declination
Unknown
Sunlit
N/A
Visualization observer readout
Local Sidereal Time
01:14:06
Azimuth
Unknown
Elevation
Unknown
Doppler factor
Unknown
Orbital elements
Apogee altitude
973.01 km
Perigee altitude
688.946 km
Semi-major axis
7,209.115 km
Eccentricity
0.0197
Inclination
98.683°
RAAN
222.305°
Arg. of periapsis
7.5819°
True anomaly
146.9997°
Mean anomaly
145.7547°
Eccentric anomaly
146.37971°
Mean motion
3.54585 °/min
Orbital period
101.53 mins
BSTAR
0.00025565
Loading maneuver chart data...
Computing Atmospheric mass density...
Loading historical data...
Loading historical data...
Loading historical data...
Loading historical data...
Loading historical data...
Loading historical data...
Loading historical data...

Documentation

Showing up to 5 results
|